Home   Weather   Los Angeles   Past weeks
Flag for USA

Past Weather in Los Angeles, California, USA — March 2015

Now
74 °F

Sunny.


Feels Like: 77 °F
Forecast: 79 / 61 °F
Wind: 7 mph from West

Location: Los Angeles / USC Campus Downtown

Current Time: Sep 19, 2019 at 6:30:15 pm

Latest Report: Sep 19, 2019 at 5:52 pm


Visibility: 10 mi

Pressure: 29.80 "Hg

Humidity: 60%

Dew Point: 59 °F

Location of Los AngelesLocation

March 2015 Weather in Los Angeles — Graph

°F

High & Low Weather Summary for March 2015

 TemperatureHumidityPressure
High92 °F (Mar 26, 1:47 pm)100% (Mar 29, 5:47 am)30.27 "Hg (Mar 29, 5:47 am)
Low48 °F (Mar 3, 5:47 am)10% (Mar 6, 11:47 am)29.86 "Hg (Mar 9, 5:47 pm)
Average66 °F57%30.01 "Hg
* Reported Mar 1 12:47 am — Mar 31 11:53 pm, Los Angeles. Weather by CustomWeather, © 2019

Note: Actual official high and low records may vary slightly from our data, if they occured in-between our weather recording intervals... More about our weather records

Advertising

Los Angeles Weather History for March 1, 2015

Scroll right to see more
 ConditionsComfort  
Time TempWeatherWind HumidityBarometerVisibility
12:47 am
Sun, Mar 1
55 °FMostly cloudy.5 mph77%29.91 "Hg10 mi
1:47 am54 °FPassing clouds.5 mph80%29.91 "Hg10 mi
2:47 am54 °FMostly cloudy.3 mph77%29.91 "Hg10 mi
3:47 am53 °FPartly cloudy.No wind80%29.91 "Hg10 mi
4:47 am53 °FMostly cloudy.No wind80%29.91 "Hg10 mi
5:47 am53 °FPassing clouds.5 mph77%29.91 "Hg10 mi
6:47 am52 °FBroken clouds.No wind80%29.92 "Hg10 mi
7:47 am53 °FPartly sunny.No wind77%29.93 "Hg10 mi
8:47 am57 °FPartly sunny.5 mph67%29.94 "Hg10 mi
9:47 am59 °FPartly sunny.3 mph60%29.94 "Hg10 mi
10:47 am60 °FMostly cloudy.7 mph60%29.93 "Hg10 mi
11:47 am62 °FOvercast.8 mph52%29.92 "Hg10 mi
12:47 pm62 °FOvercast.7 mph56%29.90 "Hg10 mi
1:47 pm62 °FPassing clouds.8 mph58%29.88 "Hg10 mi
2:47 pm62 °FPassing clouds.6 mph54%29.88 "Hg10 mi
3:47 pm59 °FOvercast.6 mph67%29.88 "Hg10 mi
4:47 pm57 °FMostly cloudy.3 mph69%29.89 "Hg10 mi
5:47 pm57 °FMostly cloudy.No wind72%29.91 "Hg10 mi
6:47 pm55 °FMostly cloudy.3 mph77%29.92 "Hg10 mi
7:47 pm55 °FOvercast.No wind77%29.93 "Hg10 mi
8:47 pm55 °FMostly cloudy.5 mph77%29.94 "Hg10 mi
9:04 pm54 °FMostly cloudy.5 mph83%29.94 "Hg10 mi
9:47 pm51 °FHeavy rain. Fog.No wind86%29.96 "Hg2 mi
10:47 pm50 °FHeavy rain. Fog.5 mph93%29.94 "Hg2 mi
10:54 pm50 °FLight rain. Fog.5 mph89%29.94 "Hg4 mi
11:47 pm50 °FRain. Fog.No wind93%29.95 "Hg2 mi
11:58 pm50 °FHeavy rain. Fog.3 mph93%29.95 "Hg1 mi
Weather by CustomWeather, © 2019

See weather overview